Temp
12 11 11 11 11 11 11 10 10 9 9 9 9 9 9 9 9 9 9 9 9 9 8 8 8 8 8 8 8 8 8 8 9 9 9 9 9 9 9 9 9 9 9
12 11 11 11 11 11 11 10 10 10 9 9 9 9 9 9 9 9 9 9 9 9 9 9 9 8 8 8 8 8 8 8 8 8 8 8 8 9 9 9 9 9 9
11 11 11 11 11 11 11 10 10 10 9 9 9 9 9 9 9 9 9 9 9 9 9 9 9 9 9 8 8 8 8 8 8 8 8 8 8 8 8 9 9 9 9
11 11 11 11 11 11 10 10 10 10 9 9 9 9 9 9 9 9 9 9 9 9 9 9 9 9 9 8 8 8 8 8 8 8 8 8 8 8 8 8 8 8 8
12 11 11 11 11 11 10 10 10 10 10 9 9 9 9 9 9 8 8 8 8 8 8 8 8 8 8 8 8 8 8 8 8 8 8 8 8 8 8 8 8 8 8
12 11 11 11 11 10 10 10 10 10 9 9 9 9 9 9 9 8 8 8 8 8 8 8 8 8 8 8 8 8 8 8 8 8 7 7 7 7 7 7 7 7 7
12 12 11 11 11 10 10 10 10 10 9 9 9 9 9 9 9 8 8 8 8 8 8 8 8 8 8 8 7 7 7 7 8 7 7 7 7 7 7 7 7 7 7
11 11 11 11 10 10 10 10 10 10 9 9 9 9 9 9 8 8 8 8 8 8 8 8 8 8 8 8 8 8 7 7 7 7 7 7 7 7 7 7 7 7 7
12 11 11 11 11 10 10 10 10 10 9 9 9 9 9 9 9 8 8 8 8 8 8 8 8 8 8 8 8 8 7 7 7 7 7 7 7 7 7 7 7 7 7
12 12 11 11 11 10 10 10 10 10 10 9 9 9 9 9 9 9 9 8 8 8 8 8 8 8 8 8 8 8 8 7 7 7 7 7 7 7 7 7 7 7 7
12 12 11 11 11 10 10 10 10 10 10 9 9 9 9 9 9 9 8 8 8 8 8 8 8 8 8 8 8 8 7 7 7 7 7 7 7 7 7 7 7 7 7
12 12 12 11 11 11 10 10 10 10 10 9 9 9 9 9 9 9 8 8 8 8 8 8 8 8 7 8 8 7 7 7 7 6 7 7 7 7 7 7 7 7 7
12 12 12 11 11 11 11 10 10 10 9 9 9 9 9 9 9 9 8 8 8 8 8 8 8 7 7 7 7 7 7 7 7 6 6 6 7 7 7 7 7 7 7
12 12 11 11 11 11 11 10 10 10 9 9 9 9 9 9 9 8 8 8 8 8 8 8 7 7 7 7 7 7 7 7 7 7 7 6 6 7 7 7 6 6 6
12 12 11 11 11 10 10 10 10 10 10 9 9 9 9 9 9 8 8 8 8 8 8 7 7 7 7 7 7 7 7 7 6 6 6 6 6 6 7 6 6 6 6
11 11 11 11 11 10 10 10 10 10 10 9 9 9 9 9 9 9 8 8 8 8 8 7 7 7 7 7 7 6 6 6 6 6 6 6 6 6 6 6 6 6 6
11 11 11 11 11 11 10 10 10 10 10 10 9 9 9 9 9 9 9 9 8 8 8 7 7 7 7 7 6 6 6 6 6 6 6 6 6 6 6 6 6 6 6
11 11 11 11 11 11 11 10 10 10 10 10 10 10 10 9 9 9 9 9 8 8 8 8 7 7 6 7 6 6 6 6 6 6 6 5 6 6 6 6 6 6 5
11 11 11 11 11 11 10 10 10 10 10 10 10 10 10 10 9 9 9 9 9 8 8 8 8 7 7 6 6 6 6 6 6 6 5 5 5 5 6 5 5 5 5
11 11 11 11 11 11 10 10 10 10 10 10 10 10 10 10 10 10 9 9 9 8 8 8 8 7 6 6 6 6 6 6 6 5 5 5 5 5 5 5 5 5 5
11 11 11 11 11 11 11 11 10 10 10 11 11 10 10 10 10 9 9 9 9 9 9 8 8 8 7 7 6 6 6 6 5 5 5 5 5 5 5 5 4 4 5
11 11 11 11 11 12 12 12 11 10 10 10 10 10 10 10 10 9 9 9 9 9 9 8 8 8 7 7 6 6 6 6 6 5 5 5 5 5 5 5 4 4 3
10 10 10 11 11 11 12 12 12 11 11 10 10 10 10 10 9 9 9 9 9 9 9 8 8 8 7 7 6 5 6 6 6 5 4 4 5 4 4 4 4 4 4
10 10 10 10 10 11 11 11 12 11 12 12 11 10 10 10 9 9 9 9 8 9 8 8 8 8 7 7 6 5 5 5 5 4 4 4 4 4 4 3 3 3 3
9 9 9 9 9 10 10 10 10 11 12 12 12 11 11 11 11 10 10 9 9 9 9 8 8 8 7 7 4 5 3 4 3 3 3 4 3 3 3 3 3 3 2
7 7 8 8 8 9 9 9 10 9 10 11 11 11 12 12 11 11 11 11 10 9 9 9 8 8 7 5 5 4 4 4 3 2 3 2 3 3 3 3 2 2 2
Height
3184 3183 3182 3181 3181 3182 3182 3183 3185 3185 3185 3186 3187 3187 3187 3187 3186 3186 3186 3185 3185 3185 3186 3186 3186 3186 3185 3185 3184 3184 3184 3183 3183 3183 3183 3183 3182 3182 3181 3181 3180 3179 3179
3184 3183 3183 3183 3183 3184 3184 3185 3186 3187 3187 3188 3189 3189 3189 3189 3189 3189 3189 3188 3187 3188 3188 3188 3188 3188 3188 3187 3187 3186 3185 3185 3185 3185 3185 3185 3184 3184 3183 3183 3182 3182 3181
3184 3184 3184 3185 3185 3185 3186 3186 3188 3189 3189 3190 3190 3191 3191 3191 3192 3191 3190 3190 3190 3190 3190 3190 3190 3189 3189 3188 3188 3188 3188 3187 3187 3187 3187 3186 3186 3186 3185 3185 3184 3183 3182
3184 3184 3185 3186 3187 3187 3187 3188 3189 3190 3190 3191 3191 3192 3192 3192 3193 3192 3192 3192 3192 3192 3192 3191 3191 3190 3190 3190 3190 3189 3189 3189 3189 3188 3188 3187 3187 3186 3186 3185 3184 3183 3182
3183 3184 3185 3186 3187 3188 3188 3188 3189 3190 3192 3192 3192 3193 3193 3193 3193 3193 3193 3192 3193 3193 3193 3192 3192 3191 3191 3191 3191 3191 3191 3190 3190 3190 3189 3188 3187 3187 3186 3186 3185 3184 3183
3183 3184 3184 3186 3187 3188 3188 3189 3190 3191 3192 3192 3193 3194 3193 3193 3194 3194 3194 3194 3193 3193 3194 3194 3193 3193 3192 3192 3191 3191 3191 3191 3191 3191 3190 3189 3188 3187 3187 3186 3185 3184 3183
3183 3183 3184 3185 3187 3187 3188 3190 3191 3191 3192 3193 3193 3194 3194 3194 3194 3194 3194 3194 3194 3194 3194 3194 3193 3193 3193 3192 3192 3191 3191 3191 3190 3190 3190 3189 3188 3188 3187 3185 3184 3183 3182
3182 3182 3184 3185 3186 3186 3188 3189 3190 3192 3192 3193 3193 3194 3193 3193 3194 3194 3194 3194 3194 3194 3194 3194 3193 3193 3193 3193 3193 3192 3191 3191 3190 3190 3189 3188 3188 3187 3186 3185 3184 3183 3181
3181 3182 3182 3184 3185 3186 3186 3188 3190 3191 3192 3192 3193 3193 3193 3193 3194 3194 3193 3193 3193 3193 3193 3193 3193 3192 3192 3191 3191 3191 3191 3190 3190 3189 3188 3187 3186 3186 3185 3185 3183 3182 3180
3181 3181 3181 3182 3184 3185 3185 3186 3188 3189 3190 3191 3192 3192 3193 3193 3193 3193 3192 3192 3192 3192 3191 3191 3191 3191 3191 3190 3190 3189 3189 3189 3188 3187 3186 3185 3185 3184 3183 3183 3182 3181 3179
3181 3181 3181 3181 3182 3183 3184 3185 3185 3187 3188 3189 3190 3191 3191 3191 3192 3192 3192 3191 3191 3190 3190 3189 3189 3189 3189 3189 3188 3188 3187 3186 3186 3186 3184 3184 3183 3182 3182 3181 3180 3179 3176
3181 3180 3180 3181 3181 3182 3183 3183 3183 3184 3186 3187 3188 3189 3189 3190 3190 3190 3190 3190 3189 3189 3188 3188 3187 3187 3187 3186 3186 3185 3185 3184 3184 3183 3182 3182 3181 3180 3180 3179 3177 3176 3174
3180 3180 3180 3180 3180 3181 3182 3182 3182 3183 3183 3184 3186 3187 3187 3187 3187 3188 3188 3188 3188 3187 3186 3186 3185 3184 3184 3184 3183 3182 3182 3182 3181 3180 3179 3178 3178 3177 3177 3176 3175 3173 3171
3179 3179 3179 3179 3179 3179 3179 3180 3181 3181 3182 3182 3183 3184 3185 3185 3185 3185 3185 3185 3185 3184 3184 3183 3182 3182 3181 3180 3179 3179 3179 3179 3178 3178 3176 3176 3175 3174 3174 3173 3172 3170 3168
3177 3177 3177 3176 3176 3177 3177 3178 3178 3179 3180 3180 3180 3181 3182 3182 3182 3182 3182 3181 3181 3181 3181 3180 3179 3179 3178 3177 3176 3175 3175 3174 3174 3174 3172 3172 3172 3171 3170 3169 3168 3166 3164
3174 3175 3174 3174 3174 3174 3174 3175 3175 3176 3176 3177 3176 3177 3178 3178 3178 3178 3178 3179 3178 3178 3177 3176 3176 3175 3175 3173 3173 3172 3171 3171 3170 3170 3169 3168 3168 3167 3166 3165 3164 3162 3160
3170 3170 3171 3171 3171 3171 3171 3171 3171 3172 3172 3172 3173 3173 3173 3174 3174 3174 3174 3174 3174 3174 3173 3172 3172 3171 3170 3169 3169 3168 3167 3167 3166 3166 3165 3163 3163 3162 3162 3160 3159 3158 3156
3165 3165 3166 3166 3167 3168 3167 3167 3167 3167 3168 3168 3168 3169 3169 3169 3170 3170 3170 3169 3169 3169 3168 3167 3167 3166 3166 3165 3164 3164 3163 3162 3162 3161 3160 3159 3158 3157 3156 3155 3154 3152 3150
3160 3160 3160 3160 3161 3162 3163 3163 3163 3162 3162 3163 3163 3164 3165 3165 3165 3165 3165 3165 3165 3164 3163 3163 3162 3162 3161 3160 3159 3159 3158 3157 3157 3156 3155 3155 3154 3152 3151 3151 3149 3148 3145
3153 3153 3154 3154 3155 3155 3156 3157 3157 3157 3157 3157 3158 3158 3159 3160 3160 3160 3160 3160 3160 3159 3158 3159 3157 3157 3157 3156 3154 3153 3153 3152 3150 3150 3149 3149 3149 3148 3146 3145 3143 3141 3138
3146 3147 3148 3147 3147 3146 3147 3148 3149 3151 3151 3151 3152 3153 3154 3154 3154 3154 3155 3154 3153 3153 3153 3152 3152 3151 3151 3150 3148 3147 3146 3146 3145 3144 3143 3143 3142 3141 3140 3139 3137 3133 3131
3138 3139 3140 3140 3139 3138 3138 3139 3139 3141 3143 3144 3145 3145 3146 3147 3148 3148 3148 3147 3147 3146 3145 3145 3145 3145 3144 3143 3143 3141 3140 3139 3138 3138 3137 3137 3135 3134 3133 3132 3130 3128 3123
3129 3130 3130 3131 3131 3130 3130 3129 3130 3131 3132 3134 3135 3137 3138 3138 3140 3141 3141 3140 3139 3138 3138 3138 3137 3137 3135 3136 3135 3135 3132 3132 3131 3131 3130 3129 3128 3128 3127 3125 3123 3120 3117
3123 3122 3122 3122 3122 3121 3120 3120 3121 3121 3123 3127 3127 3128 3127 3128 3130 3131 3132 3131 3131 3130 3130 3130 3129 3129 3127 3125 3126 3128 3127 3127 3126 3122 3123 3122 3121 3120 3119 3117 3115 3113 3110
3114 3114 3114 3114 3113 3113 3113 3112 3111 3111 3113 3116 3115 3117 3118 3118 3119 3119 3120 3120 3121 3120 3120 3120 3120 3119 3116 3113 3116 3119 3118 3118 3118 3117 3113 3113 3112 3112 3110 3109 3106 3104 3101
3105 3104 3104 3105 3105 3104 3103 3103 3103 3103 3103 3102 3104 3105 3107 3107 3108 3108 3109 3109 3109 3109 3109 3109 3109 3110 3106 3105 3105 3104 3105 3105 3105 3106 3107 3103 3104 3101 3101 3100 3098 3095 3092
Wind_Speed
4 9 12 13 13 13 15 13 12 13 13 13 12 13 14 15 15 15 16 16 15 14 12 11 10 10 10 10 11 11 11 12 12 11 11 10 10 10 10 10 10 11 10
5 7 11 12 13 12 13 12 12 12 13 12 12 12 12 12 13 13 13 14 15 14 13 12 11 10 9 9 9 9 9 9 9 9 8 8 7 6 6 6 7 7 7
10 5 9 10 12 12 11 10 10 10 12 11 10 10 9 9 9 10 10 11 12 12 12 12 11 11 10 9 8 7 6 6 7 6 6 5 4 3 3 4 4 4 5
10 7 7 7 8 10 10 9 8 8 8 8 8 7 6 6 6 6 6 7 7 8 8 9 9 9 8 8 8 6 5 5 4 5 5 5 4 4 4 4 4 4 5
10 10 7 6 7 8 9 9 8 7 6 5 6 5 4 3 3 4 5 5 4 4 4 4 5 5 5 5 5 5 5 5 5 5 5 4 5 6 6 6 6 6 7
9 9 8 7 7 7 8 8 7 6 6 5 4 2 1 1 2 3 4 4 4 5 5 5 4 4 4 4 4 4 4 5 6 6 4 4 3 4 5 6 6 7 7
7 7 8 8 8 7 7 7 7 7 6 6 4 3 2 2 3 3 4 5 5 6 6 6 5 5 5 5 6 6 6 5 5 5 6 6 6 6 6 6 6 6 6
8 8 7 7 8 7 6 7 8 8 8 7 6 5 4 3 4 4 4 5 7 7 7 7 6 6 5 5 6 6 7 7 6 6 6 7 7 6 6 6 7 9 11
5 7 7 7 7 7 8 9 9 9 9 8 7 7 6 4 4 4 4 4 6 8 9 10 10 10 9 8 7 7 7 7 7 7 7 7 5 4 5 7 9 11 12
2 7 7 7 8 7 7 9 11 11 10 10 9 8 7 7 6 5 5 6 7 9 10 12 13 13 13 13 12 10 9 8 8 8 8 8 5 5 4 6 9 11 13
2 1 4 6 8 10 10 11 12 13 13 12 11 10 9 8 8 8 7 8 9 10 12 13 14 14 14 14 14 13 10 8 8 9 10 9 8 6 6 7 10 12 14
3 2 2 5 8 10 11 12 13 14 14 14 13 12 11 11 10 10 11 10 11 12 13 14 15 15 15 16 16 15 13 10 9 10 12 10 9 8 9 10 12 14 15
2 2 3 5 7 10 12 12 14 15 15 16 15 15 14 13 13 12 13 14 14 15 15 16 16 17 17 16 15 14 14 13 12 13 13 13 12 11 11 12 14 16 18
5 5 7 8 8 10 12 13 14 15 16 16 17 17 16 15 15 15 15 15 15 16 16 17 17 17 18 16 15 15 14 14 14 15 16 15 14 13 13 14 15 17 19
8 7 6 7 10 11 13 14 15 15 16 16 17 18 18 17 16 17 17 17 17 17 17 18 18 18 18 18 17 17 15 15 15 16 17 17 16 16 16 16 18 20 21
13 11 9 7 7 12 14 16 16 17 17 17 18 18 19 18 18 18 18 18 19 18 19 19 19 18 18 18 18 16 17 16 17 17 20 19 19 20 19 19 20 22 23
17 17 17 14 13 8 14 17 18 19 19 18 18 19 19 19 18 19 18 18 19 19 20 21 20 20 20 19 19 19 19 20 20 20 21 22 22 22 21 21 22 24 24
20 19 22 21 19 18 15 18 20 21 22 21 20 20 21 20 20 20 21 21 22 22 22 22 22 22 21 21 22 23 23 24 23 23 24 24 25 24 23 23 24 25 25
21 22 23 24 25 24 23 20 22 23 24 24 23 22 21 22 23 24 24 25 25 26 25 25 24 23 23 22 23 26 27 27 26 25 26 26 26 26 25 25 26 26 26
24 24 23 28 28 30 30 29 26 25 22 24 26 25 23 22 22 26 27 29 30 29 29 26 28 25 25 25 25 26 28 29 28 27 27 28 28 27 27 27 28 27 28
30 30 30 29 28 35 35 33 34 32 30 28 27 28 27 27 27 26 26 28 29 31 31 32 32 30 27 27 28 27 29 30 29 29 28 30 29 29 28 29 30 31 31
35 34 34 34 34 34 38 38 38 39 38 38 35 34 33 33 33 32 31 31 31 32 31 34 34 33 32 30 29 30 31 32 30 29 30 31 32 31 31 31 32 32 33
36 35 34 35 38 37 37 39 39 41 43 43 42 40 40 39 39 38 38 37 36 35 36 35 36 36 37 33 33 32 33 32 35 31 32 33 33 33 33 34 34 35 36
32 33 33 31 34 36 35 38 41 42 45 42 44 45 48 47 45 45 45 45 43 43 42 41 41 38 40 38 36 33 32 32 33 40 37 35 34 34 35 37 37 38 38
33 33 32 32 32 33 33 30 33 38 41 46 47 45 45 47 48 47 47 47 46 46 46 46 46 45 44 48 33 39 38 40 48 41 44 43 38 37 39 39 40 41 42
28 30 30 30 31 34 34 35 32 30 32 37 43 45 46 48 49 45 44 45 47 48 47 48 48 47 52 47 42 38 44 45 48 47 41 45 42 41 41 41 42 44 46
Wind_Direction
125 107 99 92 88 87 89 96 100 102 98 98 96 93 88 84 83 82 84 87 89 94 101 105 109 114 117 118 116 113 111 108 104 102 100 97 92 92 94 95 94 91 86
158 111 102 98 97 90 93 106 106 105 107 105 103 97 92 90 88 84 83 85 88 88 90 94 96 98 102 108 115 120 117 112 110 107 101 97 89 84 88 90 84 78 73
165 120 111 108 105 103 96 112 117 120 119 118 111 104 95 85 83 85 83 82 84 84 86 88 87 86 89 93 95 101 107 112 107 104 97 90 84 68 57 57 57 54 46
172 152 124 133 127 121 114 113 126 124 122 123 120 116 103 88 77 76 73 76 77 83 82 82 83 84 79 77 81 85 83 84 83 82 77 62 48 39 31 35 37 39 38
185 168 156 148 162 161 141 133 136 132 131 132 124 127 114 85 54 48 46 57 60 64 72 71 68 64 58 52 53 48 44 52 56 57 63 59 48 39 27 28 27 26 24
195 177 171 170 180 172 163 158 155 153 164 158 149 163 148 43 16 5 10 16 31 33 33 38 30 22 15 4 360 2 1 4 11 17 16 20 14 21 9 2 357 358 354
202 195 191 182 184 178 170 178 181 182 191 185 181 199 221 286 310 324 341 351 2 10 8 10 15 12 359 352 349 349 348 351 352 346 341 334 339 351 351 354 354 358 359
194 200 205 202 191 184 183 198 199 201 207 207 202 208 222 246 279 304 326 342 348 351 351 348 344 343 343 338 334 331 333 336 334 334 332 329 344 353 355 355 358 357 358
213 209 203 216 215 200 194 208 215 212 216 221 223 220 224 232 262 282 303 321 333 337 337 334 331 330 330 328 328 324 320 318 319 320 319 316 330 335 356 350 349 350 349
212 219 210 219 225 223 215 214 219 222 223 229 232 235 242 238 239 258 285 303 312 318 323 325 322 321 320 321 323 320 317 311 308 305 298 295 302 314 327 336 335 341 341
32 217 229 230 231 227 226 221 224 225 227 229 234 241 246 248 253 260 270 283 297 306 312 317 314 315 317 315 309 309 309 302 292 283 281 284 289 295 302 317 324 330 333
14 360 298 269 252 241 235 233 229 228 234 237 235 238 242 252 261 268 275 279 287 294 300 306 306 307 316 314 305 301 298 291 274 270 274 276 278 286 293 309 317 323 325
256 330 326 295 264 256 249 245 240 237 235 236 239 241 245 248 254 262 273 281 283 287 292 296 300 298 304 308 298 290 285 280 270 264 265 265 265 272 284 300 309 316 320
258 261 287 299 291 258 249 250 248 246 243 243 245 245 247 251 256 259 263 271 280 285 289 292 295 296 297 298 290 284 278 271 265 266 268 265 265 270 278 292 301 306 309
245 240 269 292 289 269 252 247 249 251 249 248 248 249 251 252 256 261 266 270 274 280 284 288 291 291 292 293 285 280 271 264 264 265 268 265 268 270 276 287 295 300 304
250 244 249 256 277 268 258 249 246 247 247 248 248 249 250 251 256 262 267 274 277 279 280 282 285 289 288 289 283 272 265 265 267 268 267 264 268 269 273 283 292 300 304
245 245 245 254 254 260 259 251 247 245 243 245 251 247 244 248 254 260 267 271 273 277 280 283 282 283 286 285 280 269 263 261 268 265 262 264 262 264 272 283 291 296 300
246 246 246 248 253 255 251 248 247 246 244 243 245 246 245 248 255 260 266 270 274 275 276 280 284 282 281 282 281 267 265 262 269 265 259 260 264 265 272 282 290 294 297
251 251 252 250 251 253 257 250 244 246 247 245 244 245 248 252 256 260 266 270 271 274 279 281 284 283 281 278 279 269 265 266 269 269 261 258 261 267 274 282 288 293 300
252 252 254 257 255 253 251 251 245 238 236 239 241 241 243 250 258 265 268 272 273 273 276 283 281 281 276 274 273 269 266 269 270 268 263 261 263 268 275 283 289 293 299
260 255 255 257 258 250 250 250 250 247 241 240 243 242 245 251 254 259 264 268 273 274 276 278 279 277 277 275 273 271 267 269 269 268 265 263 265 269 274 282 287 293 296
262 261 258 257 261 259 250 252 250 248 248 246 246 247 250 252 254 256 260 264 269 270 270 272 275 278 276 275 271 268 269 270 269 268 267 265 266 269 274 279 284 289 294
257 259 259 257 256 264 258 249 249 248 249 249 249 252 253 254 256 258 261 263 266 269 269 269 271 273 275 275 269 266 266 272 275 270 268 265 266 268 273 278 282 286 291
260 260 258 253 255 259 264 253 249 250 247 248 252 254 256 259 259 260 262 264 266 269 272 272 269 268 269 270 263 264 267 272 277 278 273 267 267 268 272 278 283 287 290
251 253 257 259 258 255 256 256 252 250 249 250 252 253 259 263 262 259 260 263 265 266 269 270 270 269 264 268 261 271 260 262 265 266 274 272 265 269 273 277 283 286 289
255 253 251 253 258 259 259 257 255 255 250 247 250 253 255 258 262 259 259 261 263 264 265 267 268 266 266 266 260 279 261 261 272 257 261 270 272 269 272 277 281 284 289